• In Czech Republic
  • List of Countries
  • For 7 days
  • Water Temperature
  • Satellite Maps
  • Weather Map
  • Weather Widgets
  • user-avatar
    Login

    Hourly Weather Krasnogorskiy

    Today, 20 April, Friday

    Time Temperature Precipitation Wind Pressure Humidity
    00:00 +4°C° 0.6 mm 3 mps 744 mmHg 97%
    01:00 +4°C° 0.7 mm 3 mps 744 mmHg 97%
    02:00 +4°C° 0.7 mm 3 mps 744 mmHg 96%
    03:00 +4°C° 0.7 mm 4 mps 744 mmHg 95%
    04:00 +3°C° 0.6 mm 4 mps 745 mmHg 94%
    05:00 +2°C° 0.6 mm 5 mps 745 mmHg 92%
    06:00 +2°C° 0.6 mm 6 mps 745 mmHg 90%
    07:00 +2°C° 0.1 mm 6 mps 746 mmHg 84%
    08:00 +3°C° 0.1 mm 7 mps 746 mmHg 78%
    09:00 +3°C° 0.1 mm 7 mps 747 mmHg 72%
    10:00 +3°C° 0 mm 7 mps 747 mmHg 68%
    11:00 +3°C° 0 mm 7 mps 748 mmHg 64%
    12:00 +4°C° 0 mm 7 mps 748 mmHg 61%
    13:00 +3°C° 0 mm 6 mps 749 mmHg 59%
    14:00 +3°C° 0 mm 6 mps 749 mmHg 58%
    15:00 +3°C° 0 mm 6 mps 749 mmHg 57%
    16:00 +2°C° 0 mm 6 mps 750 mmHg 58%
    17:00 +2°C° 0 mm 5 mps 750 mmHg 59%
    18:00 +1°C° 0 mm 5 mps 750 mmHg 60%
    19:00 0°C° 0 mm 4 mps 751 mmHg 63%
    20:00 -1°C° 0 mm 4 mps 751 mmHg 66%
    21:00 -1°C° 0 mm 3 mps 751 mmHg 69%
    22:00 -1°C° 0 mm 3 mps 752 mmHg 72%
    23:00 -2°C° 0 mm 2 mps 752 mmHg 75%

    Tomorrow, 21 April, Saturday

    Time Temperature Precipitation Wind Pressure Humidity
    00:00 -3°C° 0 mm 2 mps 752 mmHg 78%
    01:00 -3°C° 0 mm 2 mps 751 mmHg 78%
    02:00 -1°C° 0 mm 1 mps 751 mmHg 78%
    03:00 -2°C° 0 mm 1 mps 751 mmHg 78%
    04:00 -1°C° 0 mm 1 mps 751 mmHg 74%
    05:00 -1°C° 0 mm 1 mps 751 mmHg 70%
    06:00 -1°C° 0 mm 0 mps 751 mmHg 67%
    07:00 +1°C° 0 mm 1 mps 750 mmHg 60%
    08:00 +1°C° 0 mm 2 mps 750 mmHg 53%
    09:00 +2°C° 0 mm 2 mps 749 mmHg 46%
    10:00 +2°C° 0 mm 3 mps 748 mmHg 45%
    11:00 +3°C° 0 mm 4 mps 748 mmHg 44%
    12:00 +3°C° 0 mm 5 mps 747 mmHg 43%
    13:00 +3°C° 0.2 mm 5 mps 746 mmHg 47%
    14:00 +2°C° 0.2 mm 6 mps 745 mmHg 51%
    15:00 +2°C° 0.2 mm 6 mps 744 mmHg 54%
    16:00 +2°C° 0.3 mm 6 mps 743 mmHg 58%
    17:00 +2°C° 0.3 mm 6 mps 742 mmHg 62%
    18:00 +2°C° 0.3 mm 6 mps 741 mmHg 66%
    19:00 +2°C° 0.9 mm 6 mps 740 mmHg 70%
    20:00 +2°C° 0.9 mm 7 mps 739 mmHg 73%
    21:00 +2°C° 0.9 mm 7 mps 737 mmHg 77%
    22:00 +2°C° 0.8 mm 8 mps 736 mmHg 79%
    23:00 +2°C° 0.8 mm 8 mps 734 mmHg 82%

    Day after tomorrow, 22 April, Sunday

    Time Temperature Precipitation Wind Pressure Humidity
    00:00 +4°C° 0.8 mm 8 mps 733 mmHg 85%
    01:00 +5°C° 1 mm 8 mps 732 mmHg 86%
    02:00 +5°C° 1 mm 8 mps 731 mmHg 87%
    03:00 +6°C° 1 mm 8 mps 731 mmHg 89%
    04:00 +5°C° 0.4 mm 7 mps 730 mmHg 90%
    05:00 +5°C° 0.4 mm 6 mps 730 mmHg 91%
    06:00 +6°C° 0.4 mm 5 mps 729 mmHg 91%
    07:00 +6°C° 0.1 mm 5 mps 730 mmHg 86%
    08:00 +5°C° 0.1 mm 6 mps 730 mmHg 80%
    09:00 +7°C° 0.1 mm 6 mps 730 mmHg 74%
    10:00 +7°C° 0.1 mm 6 mps 730 mmHg 73%
    11:00 +7°C° 0.1 mm 6 mps 730 mmHg 72%
    12:00 +7°C° 0.1 mm 6 mps 730 mmHg 72%
    13:00 +7°C° 0.1 mm 6 mps 731 mmHg 72%
    14:00 +7°C° 0.1 mm 6 mps 731 mmHg 73%
    15:00 +5°C° 0.1 mm 6 mps 731 mmHg 74%
    16:00 +4°C° 0.2 mm 6 mps 732 mmHg 77%
    17:00 +3°C° 0.2 mm 6 mps 732 mmHg 81%
    18:00 +2°C° 0.2 mm 6 mps 733 mmHg 84%
    19:00 +2°C° 0.2 mm 5 mps 733 mmHg 85%
    20:00 +1°C° 0.2 mm 5 mps 734 mmHg 86%
    21:00 0°C° 0.2 mm 5 mps 734 mmHg 87%
    22:00 0°C° 0.3 mm 5 mps 735 mmHg 88%
    23:00 0°C° 0.3 mm 5 mps 735 mmHg 89%

    23 April, Monday

    Time Temperature Precipitation Wind Pressure Humidity
    00:00 0°C° 0.3 mm 5 mps 735 mmHg 90%
    01:00 -1°C° 0.2 mm 5 mps 735 mmHg 90%
    02:00 -1°C° 0.2 mm 5 mps 736 mmHg 90%
    03:00 -2°C° 0.2 mm 6 mps 736 mmHg 89%
    04:00 -2°C° 0.2 mm 6 mps 737 mmHg 89%
    05:00 -3°C° 0.2 mm 6 mps 737 mmHg 88%
    06:00 -3°C° 0.2 mm 6 mps 738 mmHg 88%
    07:00 -3°C° 0.2 mm 6 mps 738 mmHg 86%
    08:00 -2°C° 0.2 mm 6 mps 739 mmHg 84%
    09:00 -2°C° 0.2 mm 6 mps 740 mmHg 83%
    10:00 -2°C° 0.2 mm 6 mps 740 mmHg 81%
    11:00 -1°C° 0.2 mm 5 mps 741 mmHg 80%
    12:00 0°C° 0.2 mm 5 mps 742 mmHg 78%
    13:00 0°C° 0.2 mm 5 mps 742 mmHg 78%
    14:00 0°C° 0.2 mm 5 mps 743 mmHg 77%
    15:00 0°C° 0.2 mm 5 mps 743 mmHg 77%
    16:00 0°C° 0.1 mm 5 mps 744 mmHg 78%
    17:00 0°C° 0.1 mm 4 mps 744 mmHg 79%
    18:00 0°C° 0.1 mm 4 mps 745 mmHg 81%
    19:00 -1°C° 0 mm 4 mps 745 mmHg 84%
    20:00 -1°C° 0 mm 3 mps 745 mmHg 87%
    21:00 -2°C° 0 mm 3 mps 746 mmHg 90%
    22:00 -2°C° 0 mm 3 mps 746 mmHg 91%
    23:00 -2°C° 0 mm 3 mps 746 mmHg 92%

    24 April, Tuesday

    Time Temperature Precipitation Wind Pressure Humidity
    00:00 -2°C° 0 mm 3 mps 746 mmHg 93%
    01:00 -2°C° 0 mm 3 mps 746 mmHg 92%
    02:00 -4°C° 0 mm 3 mps 747 mmHg 92%
    03:00 -4°C° 0 mm 3 mps 747 mmHg 92%
    04:00 -4°C° 0 mm 3 mps 747 mmHg 90%
    05:00 -3°C° 0 mm 4 mps 747 mmHg 88%
    06:00 -3°C° 0 mm 4 mps 748 mmHg 86%
    07:00 -3°C° 0 mm 4 mps 748 mmHg 81%
    08:00 -2°C° 0 mm 4 mps 748 mmHg 76%
    09:00 -1°C° 0 mm 5 mps 748 mmHg 71%
    10:00 -1°C° 0.1 mm 5 mps 748 mmHg 69%
    11:00 0°C° 0.1 mm 4 mps 749 mmHg 68%
    12:00 +1°C° 0.1 mm 4 mps 749 mmHg 66%
    13:00 +1°C° 0.1 mm 4 mps 749 mmHg 65%
    14:00 +1°C° 0.1 mm 4 mps 749 mmHg 65%
    15:00 +1°C° 0.1 mm 4 mps 750 mmHg 65%
    16:00 +1°C° 0.1 mm 4 mps 750 mmHg 68%
    17:00 +1°C° 0.1 mm 4 mps 750 mmHg 71%
    18:00 +1°C° 0.1 mm 3 mps 750 mmHg 74%
    19:00 0°C° 0 mm 3 mps 750 mmHg 79%
    20:00 -1°C° 0 mm 2 mps 751 mmHg 84%
    21:00 -2°C° 0 mm 2 mps 751 mmHg 89%
    22:00 -2°C° 0 mm 2 mps 751 mmHg 90%
    23:00 -3°C° 0 mm 2 mps 751 mmHg 92%

    25 April, Wednesday

    Time Temperature Precipitation Wind Pressure Humidity
    00:00 -3°C° 0 mm 2 mps 752 mmHg 93%
    01:00 -3°C° 0 mm 2 mps 752 mmHg 94%
    02:00 -3°C° 0 mm 2 mps 752 mmHg 94%
    03:00 -4°C° 0 mm 2 mps 752 mmHg 95%
    04:00 -3°C° 0 mm 2 mps 753 mmHg 92%
    05:00 -2°C° 0 mm 2 mps 753 mmHg 90%
    06:00 -2°C° 0 mm 2 mps 753 mmHg 87%
    07:00 +1°C° 0 mm 2 mps 753 mmHg 79%
    08:00 +3°C° 0 mm 2 mps 754 mmHg 71%
    09:00 +4°C° 0 mm 2 mps 754 mmHg 63%
    10:00 +6°C° 0 mm 1 mps 754 mmHg 59%
    11:00 +7°C° 0 mm 1 mps 754 mmHg 56%
    12:00 +8°C° 0 mm 1 mps 754 mmHg 52%
    13:00 +8°C° 0 mm 1 mps 754 mmHg 52%
    14:00 +8°C° 0 mm 1 mps 754 mmHg 52%
    15:00 +8°C° 0 mm 1 mps 754 mmHg 53%
    16:00 +7°C° 0 mm 1 mps 754 mmHg 56%
    17:00 +7°C° 0 mm 1 mps 754 mmHg 60%
    18:00 +6°C° 0 mm 1 mps 754 mmHg 63%
    19:00 +6°C° 0 mm 1 mps 754 mmHg 66%
    20:00 +5°C° 0 mm 1 mps 755 mmHg 68%
    21:00 +3°C° 0 mm 2 mps 755 mmHg 70%
    22:00 +3°C° 0 mm 2 mps 755 mmHg 72%
    23:00 +2°C° 0 mm 2 mps 755 mmHg 75%
    Show more